Stündliche Wetter Lablawki

Heute, 8 Mai, Samstag

Zeit Temperatur Niederschläge Wind Luftdruck Luftfeuchtigkeit
00:00 +1°C° 0 mm 3 m/S 752 mmHg 94%
01:00 +1°C° 0 mm 3 m/S 752 mmHg 96%
02:00 +1°C° 0 mm 3 m/S 753 mmHg 95%
03:00 +2°C° 0 mm 3 m/S 753 mmHg 94%
04:00 +2°C° 0 mm 3 m/S 753 mmHg 93%
05:00 +3°C° 0 mm 3 m/S 754 mmHg 89%
06:00 +3°C° 0 mm 3 m/S 754 mmHg 84%
07:00 +4°C° 0 mm 3 m/S 755 mmHg 79%
08:00 +5°C° 0 mm 3 m/S 755 mmHg 73%
09:00 +7°C° 0 mm 3 m/S 755 mmHg 67%
10:00 +7°C° 0 mm 4 m/S 755 mmHg 62%
11:00 +8°C° 0.3 mm 4 m/S 755 mmHg 65%
12:00 +8°C° 0.3 mm 5 m/S 756 mmHg 69%
13:00 +8°C° 0.3 mm 5 m/S 756 mmHg 72%
14:00 +8°C° 0.6 mm 5 m/S 756 mmHg 74%
15:00 +7°C° 0.6 mm 5 m/S 756 mmHg 76%
16:00 +7°C° 0.6 mm 5 m/S 756 mmHg 78%
17:00 +6°C° 0.2 mm 4 m/S 757 mmHg 82%
18:00 +5°C° 0.2 mm 3 m/S 757 mmHg 86%
19:00 +5°C° 0.2 mm 2 m/S 758 mmHg 90%
20:00 +4°C° 0 mm 2 m/S 758 mmHg 91%
21:00 +3°C° 0 mm 2 m/S 758 mmHg 91%
22:00 +4°C° 0 mm 1 m/S 758 mmHg 91%
23:00 +2°C° 0 mm 2 m/S 759 mmHg 91%

Morgen, 9 Mai, Sonntag

Zeit Temperatur Niederschläge Wind Luftdruck Luftfeuchtigkeit
00:00 +2°C° 0 mm 2 m/S 759 mmHg 91%
01:00 +2°C° 0 mm 2 m/S 759 mmHg 91%
02:00 +1°C° 0 mm 3 m/S 759 mmHg 91%
03:00 +1°C° 0 mm 3 m/S 759 mmHg 91%
04:00 +1°C° 0 mm 3 m/S 759 mmHg 91%
05:00 +1°C° 0 mm 4 m/S 759 mmHg 87%
06:00 +4°C° 0 mm 4 m/S 759 mmHg 83%
07:00 +6°C° 0 mm 5 m/S 759 mmHg 79%
08:00 +8°C° 0 mm 5 m/S 759 mmHg 72%
09:00 +10°C° 0 mm 6 m/S 758 mmHg 65%
10:00 +11°C° 0 mm 6 m/S 758 mmHg 58%
11:00 +11°C° 0 mm 6 m/S 758 mmHg 62%
12:00 +11°C° 0 mm 6 m/S 758 mmHg 65%
13:00 +10°C° 0 mm 5 m/S 758 mmHg 68%
14:00 +11°C° 0 mm 6 m/S 757 mmHg 68%
15:00 +13°C° 0 mm 6 m/S 757 mmHg 69%
16:00 +13°C° 0 mm 6 m/S 757 mmHg 70%
17:00 +13°C° 0 mm 5 m/S 757 mmHg 74%
18:00 +12°C° 0 mm 5 m/S 757 mmHg 78%
19:00 +12°C° 0 mm 4 m/S 757 mmHg 82%
20:00 +11°C° 0 mm 4 m/S 757 mmHg 84%
21:00 +10°C° 0 mm 4 m/S 757 mmHg 86%
22:00 +10°C° 0 mm 4 m/S 757 mmHg 88%
23:00 +10°C° 0 mm 4 m/S 757 mmHg 88%

übermorgen, 10 Mai, Montag

Zeit Temperatur Niederschläge Wind Luftdruck Luftfeuchtigkeit
00:00 +8°C° 0 mm 4 m/S 757 mmHg 87%
01:00 +8°C° 0 mm 4 m/S 757 mmHg 87%
02:00 +8°C° 0 mm 4 m/S 757 mmHg 88%
03:00 +8°C° 0 mm 4 m/S 757 mmHg 89%
04:00 +7°C° 0 mm 4 m/S 757 mmHg 90%
05:00 +9°C° 0 mm 5 m/S 757 mmHg 86%
06:00 +10°C° 0 mm 5 m/S 757 mmHg 83%
07:00 +11°C° 0 mm 6 m/S 758 mmHg 79%
08:00 +14°C° 0 mm 6 m/S 757 mmHg 74%
09:00 +16°C° 0 mm 7 m/S 757 mmHg 69%
10:00 +18°C° 0 mm 7 m/S 757 mmHg 64%
11:00 +18°C° 0 mm 7 m/S 757 mmHg 63%
12:00 +20°C° 0 mm 8 m/S 757 mmHg 63%
13:00 +21°C° 0 mm 8 m/S 756 mmHg 62%
14:00 +21°C° 0 mm 8 m/S 756 mmHg 63%
15:00 +20°C° 0 mm 8 m/S 756 mmHg 65%
16:00 +20°C° 0 mm 8 m/S 756 mmHg 67%
17:00 +18°C° 0 mm 7 m/S 756 mmHg 70%
18:00 +17°C° 0 mm 7 m/S 756 mmHg 73%
19:00 +16°C° 0 mm 6 m/S 757 mmHg 76%
20:00 +16°C° 0 mm 6 m/S 757 mmHg 77%
21:00 +15°C° 0 mm 6 m/S 757 mmHg 78%
22:00 +14°C° 0 mm 6 m/S 757 mmHg 79%
23:00 +14°C° 0 mm 6 m/S 756 mmHg 81%

11 Mai, Dienstag

Zeit Temperatur Niederschläge Wind Luftdruck Luftfeuchtigkeit
00:00 +13°C° 0 mm 6 m/S 756 mmHg 84%
01:00 +13°C° 0 mm 6 m/S 756 mmHg 86%
02:00 +11°C° 0 mm 6 m/S 756 mmHg 87%
03:00 +11°C° 0 mm 6 m/S 756 mmHg 87%
04:00 +10°C° 0 mm 6 m/S 756 mmHg 88%
05:00 +11°C° 0 mm 6 m/S 756 mmHg 85%
06:00 +12°C° 0 mm 7 m/S 756 mmHg 82%
07:00 +14°C° 0 mm 7 m/S 756 mmHg 79%
08:00 +16°C° 0 mm 7 m/S 755 mmHg 76%
09:00 +17°C° 0 mm 8 m/S 755 mmHg 72%
10:00 +20°C° 0 mm 8 m/S 755 mmHg 69%
11:00 +21°C° 0 mm 8 m/S 754 mmHg 68%
12:00 +21°C° 0 mm 9 m/S 754 mmHg 67%
13:00 +22°C° 0 mm 9 m/S 754 mmHg 66%
14:00 +22°C° 0 mm 9 m/S 754 mmHg 67%
15:00 +22°C° 0 mm 9 m/S 754 mmHg 68%
16:00 +21°C° 0 mm 8 m/S 754 mmHg 69%
17:00 +20°C° 0 mm 8 m/S 754 mmHg 70%
18:00 +18°C° 0 mm 8 m/S 754 mmHg 71%
19:00 +17°C° 0 mm 7 m/S 754 mmHg 72%
20:00 +16°C° 0 mm 7 m/S 754 mmHg 71%
21:00 +16°C° 0 mm 7 m/S 754 mmHg 69%
22:00 +15°C° 0 mm 7 m/S 754 mmHg 68%
23:00 +14°C° 0 mm 7 m/S 754 mmHg 67%

12 Mai, Mittwoch

Zeit Temperatur Niederschläge Wind Luftdruck Luftfeuchtigkeit
00:00 +12°C° 0 mm 7 m/S 754 mmHg 66%
01:00 +12°C° 0 mm 7 m/S 754 mmHg 66%
02:00 +11°C° 0 mm 7 m/S 754 mmHg 67%
03:00 +11°C° 0 mm 7 m/S 754 mmHg 69%
04:00 +10°C° 0 mm 7 m/S 754 mmHg 71%
05:00 +11°C° 0 mm 7 m/S 754 mmHg 72%
06:00 +12°C° 0 mm 7 m/S 754 mmHg 73%
07:00 +14°C° 0 mm 7 m/S 754 mmHg 75%
08:00 +16°C° 0 mm 7 m/S 753 mmHg 72%
09:00 +17°C° 0 mm 8 m/S 753 mmHg 69%
10:00 +20°C° 0 mm 8 m/S 753 mmHg 66%
11:00 +21°C° 0 mm 8 m/S 753 mmHg 66%
12:00 +21°C° 0 mm 8 m/S 753 mmHg 65%
13:00 +22°C° 0 mm 7 m/S 753 mmHg 64%
14:00 +22°C° 0 mm 7 m/S 753 mmHg 65%
15:00 +21°C° 0 mm 7 m/S 752 mmHg 65%
16:00 +21°C° 0 mm 7 m/S 752 mmHg 66%
17:00 +19°C° 0 mm 6 m/S 752 mmHg 69%
18:00 +17°C° 0 mm 6 m/S 752 mmHg 72%
19:00 +15°C° 0 mm 5 m/S 752 mmHg 75%
20:00 +15°C° 0 mm 5 m/S 753 mmHg 77%
21:00 +14°C° 0 mm 5 m/S 753 mmHg 79%
22:00 +13°C° 0 mm 6 m/S 753 mmHg 81%
23:00 +12°C° 0 mm 5 m/S 753 mmHg 82%

13 Mai, Donnerstag

Zeit Temperatur Niederschläge Wind Luftdruck Luftfeuchtigkeit
00:00 +10°C° 0 mm 5 m/S 753 mmHg 82%
01:00 +8°C° 0 mm 5 m/S 753 mmHg 83%
02:00 +8°C° 0 mm 4 m/S 753 mmHg 86%
03:00 +7°C° 0 mm 4 m/S 753 mmHg 90%
04:00 +6°C° 0 mm 4 m/S 754 mmHg 93%
05:00 +8°C° 0 mm 4 m/S 753 mmHg 88%
06:00 +9°C° 0 mm 5 m/S 753 mmHg 82%
07:00 +12°C° 0 mm 5 m/S 753 mmHg 76%
08:00 +13°C° 0 mm 6 m/S 753 mmHg 72%
09:00 +14°C° 0 mm 6 m/S 752 mmHg 67%
10:00 +16°C° 0 mm 6 m/S 752 mmHg 63%
11:00 +16°C° 0 mm 5 m/S 752 mmHg 64%
12:00 +15°C° 0 mm 4 m/S 752 mmHg 66%
13:00 +16°C° 0 mm 3 m/S 751 mmHg 67%
14:00 +16°C° 0.2 mm 3 m/S 751 mmHg 71%
15:00 +14°C° 0.2 mm 3 m/S 751 mmHg 75%
16:00 +15°C° 0.2 mm 2 m/S 750 mmHg 79%
17:00 +14°C° 0.1 mm 2 m/S 750 mmHg 82%
18:00 +13°C° 0.1 mm 2 m/S 750 mmHg 86%
19:00 +13°C° 0.1 mm 1 m/S 750 mmHg 89%
20:00 +12°C° 0.8 mm 2 m/S 749 mmHg 91%
21:00 +12°C° 0.8 mm 2 m/S 749 mmHg 94%
22:00 +10°C° 0.8 mm 2 m/S 749 mmHg 96%
23:00 +10°C° 0.8 mm 2 m/S 749 mmHg 96%
Mehr zeigen

Wir brauchen deine Erlaubnis

Meteoprog und unser Service Anbieter werden persönliche Daten aufbewahren, so wie Cookies, Geräte Bezeichnung oder ähnliche Technologien von deinem Gerät und Prozess, so wie Persönliche Daten Inhalte und Werbungen, genauso wie social Media und den Verkehr zu analysieren.

  • Aufbewahrung und/oder Zugang zu deiner Geräte Informationen.

    Cookies, Geräte Bezeichnung oder andere Informationen, können aufbewahrt oder Zugang zu deinem Gerät erhalten, für den Grund, der oben angegeben wird.

  • Personalisierte Werbung und Inhalte, Messungen, Einblick in das Publikum und Produkt Entwicklung.

    Werbungen und Inhalte können personalisiert werden, basierend auf ein Profil. Mehr Daten können besser personalisierte Werbungen und Inhalte hinzufügen. Werbung und Inhalte können gezeigt und gemessen werden. Einblicke über das Publikum, welche die Werbung gesehen haben und den Inhalt, können abgeleitet werden. So wie Daten können genutzt werden, um es zu verbessern oder die Benutzer Erfahrung zu verbessern das System und die Software.

Wenn du “Ich stimme zu” klickst, erlaubst du uns, die Cookies zu benutzen die Geräte Bezeichnung, den Web oder ähnliche Technologien zu benutzen. Deine Settings, können in deinem Gerät bei deinem Browser geändert werden.

Für den bestimmten Zweck, berechtigten Interessen beruhen darauf, mehr als auf den Inhalt. Du kannst mehr darüber in unseren Privaten und Cookie Politik lesen.